User: anonymous   Login
Location: D�derode
(51.8092°N, 10.1065°E)
Time: 09:37:33
(UTC+00:00)
Language:

SKYMED 2 - Orbit

View from above orbital plane
View from above orbital plane
View from above satellite
View from above satellite

Ground track
Ground track

The orbit data is extracted from the following two-line orbital elements,

1 32376U 07059A   21063.89963875 -.00000091  00000-0 -48349-5 0  9994
2 32376  97.8865 249.2773 0001664  89.9304 270.2106 14.82151305716158
Epoch (UTC): 04 March 2021 21:35:28
Eccentricity: 0.0001664
inclination: 97.8865°
perigee height: 621 km
apogee height: 624 km
right ascension of ascending node: 249.2773°
argument of perigee: 89.9304°
revolutions per day: 14.82151305
mean anomaly at epoch: 270.2106°
orbit number at epoch: 71615

The dashed part of the orbit path shows where the satellite is in the earth's shadow,  

DLR